Regional Weather Roundup
Issued by NWS

Home | Current Version | Previous Version | Graphics & Text | Print | Product List | Glossary Off
Versions: 1 2 3 4 5 6 7 8 9 10 11 12 13 14 15 16 17 18 19 20 21 22 23 24 25 26 27 28 29 30 31 32 33 34 35 36 37 38 39 40 41 42 43 44 45 46 47 48 49 50

000
ASUS43 KDTX 111210
RWRMI
MICHIGAN HOURLY REGIONAL WEATHER ROUNDUP
NATIONAL WEATHER SERVICE DETROIT/PONTIAC MI
700 AM EST MON DEC 11 2017

NOTE: "FAIR" INDICATES FEW OR NO CLOUDS BELOW 12,000 FEET WITH NO
SIGNIFICANT WEATHER AND/OR OBSTRUCTION TO VISIBILITY.

MIZ047>049-052>055-059>063-066>070-074>076-081>083-111300-
SOUTHEAST LOWER MICHIGAN

CITY           SKY/WX    TMP DP  RH WIND       PRES   REMARKS
ADRIAN         CLOUDY    24  19  81 CALM      30.04R
6HR MIN TEMP:  23; 6HR MAX TEMP:  25;

ALMA           CLOUDY    20  16  83 SE3       30.03R
6HR MIN TEMP:  19; 6HR MAX TEMP:  22;

ANN ARBOR      CLOUDY    22  19  89 S3        30.02R
BAD AXE        CLOUDY    15  10  77 S3        30.01S
6HR MIN TEMP:  13; 6HR MAX TEMP:  20;

CARO           CLOUDY    15  10  82 CALM      30.02S
DETROIT CITY   CLOUDY    23  15  71 NE3       30.03F
6HR MIN TEMP:  22; 6HR MAX TEMP:  27;

DETROIT        CLOUDY    26  17  68 CALM      30.04S
6HR MIN TEMP:  24; 6HR MAX TEMP:  28;

FLINT          CLOUDY    19  12  74 E5        30.02S WCI  12
6HR MIN TEMP:  19; 6HR MAX TEMP:  25;

GROSSE ILE     CLOUDY    25  19  78 W3        30.02S
6HR MIN TEMP:  24; 6HR MAX TEMP:  28;

HILLSDALE      CLOUDY    27  21  80 S5        29.98F WCI  21
HOWELL         CLOUDY    22  18  85 CALM      30.01R
6HR MIN TEMP:  20; 6HR MAX TEMP:  24;


CITY           SKY/WX    TMP DP  RH WIND       PRES   REMARKS
JACKSON        CLOUDY    25  19  78 SE5       30.00R WCI  19
6HR MIN TEMP:  25; 6HR MAX TEMP:  26;

LAMBERTVILLE   CLOUDY    23  20  90 CALM      30.05R
6HR MIN TEMP:  17; 6HR MAX TEMP:  27;

LANSING        CLOUDY    22  13  68 SE3       30.02R
6HR MIN TEMP:  21; 6HR MAX TEMP:  25;

LAPEER         CLOUDY    15   9  79 CALM      30.02S
6HR MIN TEMP:  13; 6HR MAX TEMP:  25;

MASON          CLOUDY    23  11  60 CALM      30.01S
6HR MIN TEMP:  23; 6HR MAX TEMP:  26;

MONROE         CLOUDY    23  20  87 W3        30.04R
6HR MIN TEMP:  19; 6HR MAX TEMP:  28;

MT. CLEMENS    CLOUDY    19  14  78 N5        30.02S WCI  13
6HR MIN TEMP:  19; 6HR MAX TEMP:  27; 6HR PCP: TRACE;

PONTIAC        CLOUDY    20  14  77 E5        29.99F WCI  13
6HR MIN TEMP:  20; 6HR MAX TEMP:  25;

PORT HOPE        N/A     18   9  68 CALM      30.00S
6HR MIN TEMP:  18; 6HR MAX TEMP:  21;

PORT HURON     CLOUDY    16   9  73 CALM      30.04S
TRI CITIES     CLOUDY    18  13  80 S5        30.03R WCI  11
6HR MIN TEMP:  11; 6HR MAX TEMP:  20;

MIDLAND        CLOUDY    19  15  82 SW3       30.03R
6HR MIN TEMP:  18; 6HR MAX TEMP:  20;

TROY           CLOUDY    23  16  75 NE5       30.04S WCI  17
SAGINAW HB     CLOUDY    18  12  79 S5        30.03R WCI  11
$$
MIZ043>046-050>051-056>058-064>065-071>073-077>080-111300-
SOUTHWEST LOWER MICHIGAN

CITY           SKY/WX    TMP DP  RH WIND       PRES   REMARKS
BATTLE CREEK   CLOUDY    27  21  78 SE3       30.00S
6HR MIN TEMP:  26; 6HR MAX TEMP:  27;

BENTON HARBOR  CLOUDY    30  20  66 S7        30.00S WCI  23
6HR MIN TEMP:  28; 6HR MAX TEMP:  32;

BIG RAPIDS     CLOUDY    20  13  75 S5        29.96F WCI  14
6HR MIN TEMP:  19; 6HR MAX TEMP:  21;

COLDWATER      CLOUDY    27  23  84 S3        30.01R
6HR MIN TEMP:  26; 6HR MAX TEMP:  28;

FREMONT        CLOUDY    22  17  81 SE3       29.98S
6HR MIN TEMP:  22; 6HR MAX TEMP:  24;

HOLLAND        CLOUDY    26  20  77 SE5       29.99R WCI  20
6HR MIN TEMP:  26; 6HR MAX TEMP:  28;

GRAND RAPIDS   CLOUDY    24  21  88 E7        30.00R WCI  16
6HR MIN TEMP:  24; 6HR MAX TEMP:  26;

IONIA          CLOUDY    23  15  71 E8        30.00S WCI  13
6HR MIN TEMP:  23; 6HR MAX TEMP:  25;

KALAMAZOO      CLOUDY    28  22  78 S5        30.00R WCI  23
6HR MIN TEMP:  27; 6HR MAX TEMP:  28;

LUDINGTON      CLOUDY    22  15  74 SE5       29.96S WCI  16
6HR MIN TEMP:  22; 6HR MAX TEMP:  25;

MARSHALL       CLOUDY    25  22  89 CALM      29.99F
6HR MIN TEMP:  24; 6HR MAX TEMP:  26;

MOUNT PLEASANT CLOUDY    19  13  77 S6        30.00S WCI  11
6HR MIN TEMP:  11; 6HR MAX TEMP:  19;

MUSKEGON       CLOUDY    25  16  68 E8        29.99F WCI  16
6HR MIN TEMP:  25; 6HR MAX TEMP:  26;

SOUTH HAVEN    CLOUDY    31  21  66 CALM      29.99F
$$
MIZ016>042-111300-
NORTHERN LOWER MICHIGAN

CITY           SKY/WX    TMP DP  RH WIND       PRES   REMARKS
ALPENA         CLOUDY    17  10  74 SW5       29.99R WCI  10
6HR MIN TEMP:  16; 6HR MAX TEMP:  17;

BEAVER ISLAND  CLOUDY    19  13  76 CALM      29.93S
6HR MIN TEMP:  19; 6HR MAX TEMP:  21;

BELLAIRE       CLOUDY    19  15  88 CALM      29.95F
6HR MIN TEMP:  18; 6HR MAX TEMP:  19;

CADILLAC       MOCLDY    17  13  84 SE5       29.90F WCI  10
CHARLEVOIX     CLOUDY    19  14  81 SE6       29.96F WCI  11
6HR MIN TEMP:  19; 6HR MAX TEMP:  23;

FRANKFORT      CLOUDY    22  16  75 CALM      29.95R
GAYLORD        CLOUDY    14   9  80 SE6       29.90F WCI   5
6HR MIN TEMP:  12; 6HR MAX TEMP:  14; 6HR PCP: TRACE;

GRAYLING       CLOUDY    16  10  78 SE3       29.94F
6HR MIN TEMP:  15; 6HR MAX TEMP:  17;

HARBOR SPRINGS CLOUDY    18  10  72 SE3       29.94F
HOUGHTON LAKE  CLOUDY    17  11  77 S7        29.94F WCI   8
6HR MIN TEMP:  16; 6HR MAX TEMP:  17;

MANISTEE       CLOUDY    21  15  78 SE7       29.96S WCI  12
OSCODA         CLOUDY    15   9  76 SW6       30.01R WCI   6
6HR MIN TEMP:   8; 6HR MAX TEMP:  15;

PELLSTON       CLOUDY    16  10  77 E5        29.95F WCI   9
6HR MIN TEMP:  14; 6HR MAX TEMP:  17;

ROGERS CITY    CLOUDY    15  11  83 S3        29.99S
TRAVERSE CITY  CLOUDY    21  13  71 S3        29.94F
6HR MIN TEMP:  21; 6HR MAX TEMP:  22; 6HR PCP: TRACE;

$$
MIZ007>008-015-111300-
EASTERN UPPER MICHIGAN

CITY           SKY/WX    TMP DP  RH WIND       PRES   REMARKS
KINROSS        CLOUDY     5   1  85 E9        29.96R WCI  -9
6HR MIN TEMP:   5; 6HR MAX TEMP:   7;

MACKINAC ISLAN CLOUDY    19  12  76 E3        29.95S
6HR MIN TEMP:  17; 6HR MAX TEMP:  19;

NEWBERRY       CLOUDY    13  12  97 CALM      29.92S
6HR MIN TEMP:  13; 6HR MAX TEMP:  14;

S. S. MARIE    CLOUDY     7   0  73 E3        29.97F
6HR MIN TEMP:   5; 6HR MAX TEMP:   9; 6HR PCP: TRACE;

MUNISING         N/A     15   9  76 S5        29.90F WCI   8
6HR MIN TEMP:  14; 6HR MAX TEMP:  16;

$$
MIZ004>006-011>014-085-111300-
CENTRAL UPPER MICHIGAN

CITY           SKY/WX    TMP DP  RH WIND       PRES   REMARKS
MANISTIQUE     PTCLDY    14   4  65 W5        29.93S WCI   6
6HR MIN TEMP:  13; 6HR MAX TEMP:  15;

ESCANABA       CLOUDY    13  10  88 CALM      29.91F
6HR MIN TEMP:   5; 6HR MAX TEMP:  13;

MENOMINEE      FLURRIES  21  15  78 SW5       29.92F WCI  15
6HR MIN TEMP:  11; 6HR MAX TEMP:  21; 6HR PCP: TRACE;

SAWYER-GWINN   CLOUDY    10   5  79 S8        29.85F WCI  -1
$$
MIZ001>003-009>011-084-111300-
WESTERN UPPER MICHIGAN

CITY           SKY/WX    TMP DP  RH WIND       PRES   REMARKS
IRON MOUNTAIN  LGT SNOW  14   9  80 S6        29.85F WCI   5
6HR MIN TEMP:  13; 6HR MAX TEMP:  15; 6HR PCP: TRACE;

HOUGHTON       CLOUDY    16   8  71 S8        29.80F WCI   5
6HR MIN TEMP:  12; 6HR MAX TEMP:  16;

COPPER HARBOR    N/A     17   9  70 SW7       29.82F WCI   8
6HR MIN TEMP:  11; 6HR MAX TEMP:  17;

$$

ABBREVIATIONS USED IN REMARKS
   TC - TEMPERATURE IN CELSIUS
  WCI - WIND CHILL INDEX
   HX - HEAT INDEX
  VSB - VISIBILITY





USA.gov is the U.S. government's official web portal to all federal, state and local government web resources and services.